Tracking 26443 objects as of 5-Dec-2022
HD Live streaming from Space Station
objects crossing your sky now

AMC-8 (GE-8)

Track AMC-8 (GE-8) now!
AMC-8 (GE-8) is classified as:


NORAD ID: 26639
Int'l Code: 2000-081B
Perigee: 36,091.2 km
Apogee: 36,129.8 km
Inclination: 2.8 °
Period: 1,452.3 minutes
Semi major axis: 42481 km
RCS: 25.1189 m2 (large)
Launch date: December 20, 2000
Source: SOCIETE EUROPEENNE DES SATELLITES (SES)
Launch site: FRENCH GUIANA (FRGUI)

Cable television and radio programming; 24 C-band; CONUS, Alaska, Hawaii, Caribbean
aabbcc
Your satellite tracking list
Your tracking list is empty




NASA's NSSDC Master Catalog

Two Line Element Set (TLE):
1 26639U 00081B   22338.79213406 -.00000047  00000-0  00000-0 0  9997
2 26639   2.7880  87.9820 0004546 199.0136 265.1784  0.99152278 80391
Source of the keplerian elements: AFSPC